Weather History for Corinth, MS

Change the Weather History Date:

Monday, November 26, 2012

  Actual Average Record
Temperature  
Mean Temperature 45 °F -  
Max Temperature 57 °F 62 °F 82 °F (1965)
Min Temperature 33 °F 41 °F 20 °F (1977)
Degree Days  
Heating Degree Days 20    
Moisture  
Dew Point 40 °F    
Average Humidity 73    
Maximum Humidity 94    
Minimum Humidity 54    
Precipitation  
Precipitation 0.02 in - - ()
Sea Level Pressure  
Sea Level Pressure 30.10 in    
Wind  
Wind Speed 4 mph (SSE)    
Max Wind Speed 14 mph    
Max Gust Speed 20 mph    
Visibility 9 miles    
Events Rain    
Averages and records for this station are not official NWS values.
T = Trace of Precipitation, MM = Missing Value Source: NWS Daily Summary

Daily Weather History Graph

Daily Weather History Graph

Search for Another Location

Airport:

Trip Planner

Search our weather history database for the weather conditions in past years. The results will help you decide how hot, cold, wet, or windy it might be!

Date:

Astronomy

Nov. 26, 2012 Rise Set
Actual Time 6:39 AM CST 4:43 PM CST
Civil Twilight 6:12 AM CST 5:11 PM CST
Nautical Twilight 5:41 AM CST 5:42 PM CST
Astronomical Twilight 5:10 AM CST 6:12 PM CST
Moon 3:34 PM CST (11/26) 4:52 AM CST (11/26)
Length of Visible Light 10h 59m
Length of Day
10h 04m
Waxing Gibbous, 97% of the Moon is Illuminated
Nov 26
Waxing Gibbous
Nov 28
Full
Dec 6
Last Quarter
Dec 13
New
Dec 19
First Quarter

Hourly Weather History & Observations

Time (CST) Temp. Windchill Dew Point Humidity Pressure Visibility Wind Dir Wind Speed Gust Speed Precip Events Conditions
12:05 AM 37.4 °F 33.8 °F 28.4 °F 70% 30.08 in 10.0 mi SE 4.6 mph - N/A   Clear
12:25 AM 37.4 °F 33.8 °F 28.4 °F 70% 30.08 in 10.0 mi SE 4.6 mph - N/A   Clear
12:45 AM 35.6 °F - 28.4 °F 75% 30.08 in 10.0 mi Calm Calm - N/A   Partly Cloudy
1:05 AM 37.4 °F - 28.4 °F 70% 30.09 in 10.0 mi Calm Calm - N/A   Clear
1:25 AM 35.6 °F - 28.4 °F 75% 30.09 in 10.0 mi Calm Calm - N/A   Clear
1:45 AM 35.6 °F - 28.4 °F 75% 30.10 in 10.0 mi Calm Calm - N/A   Clear
2:05 AM 35.6 °F 32.8 °F 28.4 °F 75% 30.10 in 10.0 mi SSE 3.5 mph - N/A   Clear
2:25 AM 33.8 °F 30.8 °F 28.4 °F 81% 30.10 in 10.0 mi SSE 3.5 mph - N/A   Clear
2:45 AM 35.6 °F - 28.4 °F 75% 30.10 in 10.0 mi Calm Calm - N/A   Clear
3:05 AM 33.8 °F 30.8 °F 28.4 °F 81% 30.10 in 10.0 mi SE 3.5 mph - N/A   Clear
3:25 AM 33.8 °F - 30.2 °F 87% 30.10 in 10.0 mi Calm Calm - N/A   Mostly Cloudy
3:45 AM 37.4 °F - 32.0 °F 81% 30.10 in 10.0 mi Calm Calm - N/A   Overcast
4:05 AM 37.4 °F - 32.0 °F 81% 30.10 in 10.0 mi Calm Calm - N/A   Overcast
4:25 AM 39.2 °F - 32.0 °F 75% 30.10 in 10.0 mi Calm Calm - N/A   Overcast
4:45 AM 41.0 °F - 35.6 °F 81% 30.11 in 10.0 mi Calm Calm - N/A   Overcast
5:05 AM 41.0 °F - 35.6 °F 81% 30.11 in 10.0 mi Calm Calm - N/A   Overcast
5:25 AM 42.8 °F - 32.0 °F 66% 30.11 in 10.0 mi Calm Calm - N/A   Overcast
5:45 AM 44.6 °F 43.1 °F 32.0 °F 61% 30.11 in 10.0 mi ESE 3.5 mph - N/A   Overcast
6:05 AM 44.6 °F 43.1 °F 32.0 °F 61% 30.11 in 10.0 mi SE 3.5 mph - N/A   Overcast
6:25 AM 44.6 °F 42.2 °F 32.0 °F 61% 30.11 in 10.0 mi SE 4.6 mph - N/A   Overcast
6:45 AM 46.4 °F 42.9 °F 32.0 °F 57% 30.12 in 10.0 mi SSE 6.9 mph - N/A   Overcast
7:05 AM 46.4 °F 43.5 °F 32.0 °F 57% 30.12 in 10.0 mi SSE 5.8 mph - N/A   Overcast
7:25 AM 46.4 °F 42.9 °F 32.0 °F 57% 30.12 in 10.0 mi SSE 6.9 mph - N/A   Overcast
7:45 AM 46.4 °F 42.9 °F 32.0 °F 57% 30.13 in 10.0 mi SSE 6.9 mph - N/A   Overcast
8:05 AM 46.4 °F 42.9 °F 32.0 °F 57% 30.13 in 10.0 mi SSE 6.9 mph - N/A   Overcast
8:25 AM 48.2 °F - 33.8 °F 58% 30.14 in 10.0 mi SSE 8.1 mph - N/A   Overcast
8:45 AM 48.2 °F - 33.8 °F 58% 30.14 in 10.0 mi SSE 8.1 mph - N/A   Overcast
9:05 AM 50.0 °F - 35.6 °F 58% 30.13 in 10.0 mi SSE 10.4 mph - N/A   Mostly Cloudy
9:25 AM 53.6 °F - 37.4 °F 54% 30.13 in 10.0 mi South 9.2 mph - N/A   Scattered Clouds
9:45 AM 51.8 °F - 37.4 °F 58% 30.14 in 10.0 mi South 5.8 mph - N/A   Overcast
10:05 AM 53.6 °F - 39.2 °F 58% 30.14 in 10.0 mi SE 8.1 mph - N/A   Overcast
10:25 AM 53.6 °F - 39.2 °F 58% 30.13 in 10.0 mi SSE 8.1 mph - N/A   Overcast
10:45 AM 53.6 °F - 39.2 °F 58% 30.12 in 10.0 mi SSE 8.1 mph - N/A   Overcast
11:05 AM 55.4 °F - 39.2 °F 54% 30.11 in 10.0 mi SE 8.1 mph - N/A   Overcast
11:25 AM 55.4 °F - 41.0 °F 58% 30.10 in 10.0 mi SSE 5.8 mph - N/A   Overcast
11:45 AM 55.4 °F - 44.6 °F 67% 30.11 in 7.0 mi SW 5.8 mph - N/A Rain Light Rain
12:05 PM 53.6 °F - 46.4 °F 77% 30.11 in 10.0 mi West 4.6 mph - N/A   Overcast
12:25 PM 55.4 °F - 46.4 °F 72% 30.09 in 10.0 mi Calm Calm - N/A   Overcast
12:45 PM 57.2 °F - 44.6 °F 63% 30.09 in 10.0 mi SSW 12.7 mph 19.6 mph 0.01 in   Overcast
1:05 PM 57.2 °F - 44.6 °F 63% 30.07 in 10.0 mi South 9.2 mph - N/A   Overcast
1:25 PM 57.2 °F - 44.6 °F 63% 30.08 in 9.0 mi South 10.4 mph - N/A   Overcast
1:45 PM 55.4 °F - 46.4 °F 72% 30.07 in 10.0 mi South 11.5 mph 17.3 mph N/A   Overcast
2:05 PM 53.6 °F - 46.4 °F 77% 30.07 in 8.0 mi SSW 6.9 mph - N/A Rain Light Rain
2:25 PM 55.4 °F - 46.4 °F 72% 30.05 in 10.0 mi SE 4.6 mph - N/A   Overcast
2:45 PM 55.4 °F - 46.4 °F 72% 30.06 in 10.0 mi SSE 4.6 mph - N/A   Overcast
3:05 PM 57.2 °F - 46.4 °F 67% 30.05 in 10.0 mi SE 9.2 mph - N/A   Overcast
3:25 PM 57.2 °F - 46.4 °F 67% 30.06 in 10.0 mi SSE 5.8 mph - N/A   Overcast
3:45 PM 57.2 °F - 46.4 °F 67% 30.06 in 10.0 mi SSE 6.9 mph - N/A   Overcast
4:05 PM 57.2 °F - 46.4 °F 67% 30.07 in 10.0 mi South 4.6 mph - N/A   Overcast
4:25 PM 57.2 °F - 46.4 °F 67% 30.06 in 10.0 mi SE 4.6 mph - N/A   Overcast
4:45 PM 55.4 °F - 46.4 °F 72% 30.05 in 10.0 mi SSE 4.6 mph - 0.01 in   Overcast
5:05 PM 55.4 °F - 48.2 °F 77% 30.06 in 10.0 mi Calm Calm - N/A   Overcast
5:25 PM 55.4 °F - 46.4 °F 72% 30.07 in 10.0 mi Calm Calm - N/A   Overcast
5:45 PM 55.4 °F - 48.2 °F 77% 30.06 in 10.0 mi Calm Calm - N/A   Overcast
6:05 PM 55.4 °F - 48.2 °F 77% 30.07 in 10.0 mi South 4.6 mph - N/A   Overcast
6:25 PM 55.4 °F - 48.2 °F 77% 30.07 in 10.0 mi SSW 3.5 mph - N/A   Overcast
6:45 PM 55.4 °F - 48.2 °F 77% 30.08 in 10.0 mi South 4.6 mph - N/A   Overcast
7:05 PM 55.4 °F - 50.0 °F 82% 30.09 in 10.0 mi Calm Calm - N/A   Overcast
7:25 PM 55.4 °F - 50.0 °F 82% 30.09 in 10.0 mi SSW 4.6 mph - N/A   Overcast
7:45 PM 55.4 °F - 50.0 °F 82% 30.10 in 10.0 mi SW 4.6 mph - N/A   Overcast
8:05 PM 55.4 °F - 50.0 °F 82% 30.10 in 10.0 mi Calm Calm - N/A   Overcast
8:25 PM 53.6 °F - 50.0 °F 88% 30.11 in 10.0 mi NNW 6.9 mph - N/A   Overcast
8:45 PM 53.6 °F - 50.0 °F 88% 30.11 in 8.0 mi NNW 3.5 mph - N/A   Overcast
9:05 PM 53.6 °F - 50.0 °F 88% 30.11 in 4.0 mi North 4.6 mph - N/A   Overcast
9:25 PM 51.8 °F - 50.0 °F 94% 30.11 in 1.5 mi North 3.5 mph - N/A Rain Light Rain
9:45 PM 51.8 °F - 50.0 °F 94% 30.12 in 1.5 mi North 3.5 mph - N/A Rain Light Rain
10:05 PM 51.8 °F - 50.0 °F 94% 30.13 in 2.0 mi North 5.8 mph - N/A   Overcast
10:25 PM 50.0 °F - 48.2 °F 94% 30.13 in 2.0 mi NNW 6.9 mph - N/A Rain Light Rain
10:45 PM 50.0 °F - 48.2 °F 94% 30.13 in 2.0 mi NNW 6.9 mph - N/A Rain Light Rain
11:05 PM 50.0 °F - 48.2 °F 94% 30.14 in 3.0 mi NNW 8.1 mph - N/A Rain Light Rain
11:25 PM 50.0 °F - 48.2 °F 94% 30.14 in 4.0 mi NNW 9.2 mph - N/A Rain Light Rain
11:45 PM 48.2 °F - 46.4 °F 93% 30.14 in 4.0 mi North 13.8 mph 19.6 mph N/A Rain Light Rain